Chicago, IL

5:16 AM CST on January 21, 2017 (GMT -0600)
Midway International Airport

Weather History for KMDW - November, 2013

Change the Weather History Date:

Monday, November 11, 2013

  Actual Average Record
Temperature  
Mean Temperature 37 °F 44 °F  
Max Temperature 48 °F 51 °F 74 °F (1964)
Min Temperature 26 °F 37 °F 15 °F (1950)
Degree Days  
Heating Degree Days 28 21  
Month to date heating degree days 222 208  
Since 1 July heating degree days 623 639  
Cooling Degree Days 0 0  
Month to date cooling degree days 0 0  
Year to date cooling degree days 1091 1045  
Moisture  
Dew Point 29 °F    
Average Humidity 75    
Maximum Humidity 100    
Minimum Humidity 46    
Precipitation  
Precipitation 0.10 in 0.11 in 1.30 in (1931)
Month to date precipitation 1.14 1.25  
Year to date precipitation 32.26 34.35  
Snow  
Snow 0.00 in - - ()
Snow Depth 1.00 in    
Sea Level Pressure  
Sea Level Pressure 30.25 in    
Wind  
Wind Speed 13 mph (NNW)    
Max Wind Speed 22 mph    
Max Gust Speed 29 mph    
Visibility 6 miles    
Events Fog , Rain , Snow    
T = Trace of Precipitation, MM = Missing Value Source: NWS Daily Summary

Daily Weather History Graph

Daily Weather History Graph

Search for Another Location

Airport or City:

Trip Planner

Search our weather history database for the weather conditions in past years. The results will help you decide how hot, cold, wet, or windy it might be!

Date:

Astronomy

Nov. 11, 2013 Rise Set
Actual Time 6:35 AM CST 4:33 PM CST
Civil Twilight 6:06 AM CST 5:03 PM CST
Nautical Twilight 5:32 AM CST 5:36 PM CST
Astronomical Twilight 4:59 AM CST 6:09 PM CST
Moon 1:19 PM CST (11/11) 12:15 AM CST (11/11)
Length of Visible Light 10h 57m
Length of Day
9h 58m
Waxing Gibbous, 66% of the Moon is Illuminated
Nov 11
Waxing Gibbous
Nov 17
Full
Nov 25
Last Quarter
Dec 2
New
Dec 9
First Quarter

Hourly Weather History & Observations

Time (CST) Temp. Windchill Dew Point Humidity Pressure Visibility Wind Dir Wind Speed Gust Speed Precip Events Conditions
12:51 AM 45.0 °F 39.7 °F 30.9 °F 58% 30.21 in 10.0 mi SW 10.4 mph - N/A   Overcast
1:51 AM 45.0 °F 39.3 °F 30.0 °F 56% 30.19 in 10.0 mi SW 11.5 mph - N/A   Overcast
2:51 AM 45.0 °F 39.3 °F 30.9 °F 58% 30.16 in 10.0 mi SSW 11.5 mph - N/A   Overcast
3:51 AM 44.1 °F 38.1 °F 30.9 °F 60% 30.12 in 10.0 mi SSW 11.5 mph - N/A   Overcast
4:51 AM 45.0 °F 39.3 °F 30.9 °F 58% 30.13 in 10.0 mi SW 11.5 mph - N/A   Overcast
5:51 AM 45.0 °F 39.3 °F 30.9 °F 58% 30.11 in 10.0 mi SSW 11.5 mph - N/A   Overcast
6:51 AM 46.0 °F 41.9 °F 32.0 °F 58% 30.11 in 10.0 mi SW 8.1 mph - N/A   Overcast
7:51 AM 46.9 °F - 33.1 °F 59% 30.12 in 10.0 mi WSW 8.1 mph - N/A   Overcast
8:51 AM 46.9 °F - 33.1 °F 59% 30.13 in 10.0 mi WSW 8.1 mph - N/A   Overcast
9:51 AM 48.0 °F - 33.1 °F 56% 30.13 in 10.0 mi West 5.8 mph - N/A   Overcast
10:51 AM 45.0 °F 39.3 °F 37.0 °F 74% 30.15 in 3.0 mi NW 11.5 mph - 0.00 in Rain Light Rain
11:20 AM 44.6 °F 39.7 °F 37.4 °F 76% 30.13 in 5.0 mi North 9.2 mph - 0.00 in Rain Light Rain
11:51 AM 43.0 °F 37.2 °F 37.9 °F 82% 30.16 in 10.0 mi NNW 10.4 mph - 0.01 in Rain Light Rain
12:51 PM 41.0 °F 33.5 °F 37.0 °F 86% 30.17 in 7.0 mi NNW 13.8 mph 20.7 mph 0.01 in Rain Light Rain
1:05 PM 39.2 °F 29.8 °F 35.6 °F 87% 30.15 in 5.0 mi North 18.4 mph - 0.00 in Rain Light Rain
1:30 PM 37.4 °F 27.5 °F 35.6 °F 93% 30.17 in 4.0 mi North 18.4 mph 23.0 mph 0.01 in Rain Light Rain
1:51 PM 37.0 °F 28.5 °F 34.0 °F 89% 30.21 in 3.0 mi North 13.8 mph 23.0 mph 0.03 in Rain , Snow Light Rain
2:02 PM 35.6 °F 26.6 °F 33.8 °F 93% 30.20 in 2.0 mi North 13.8 mph 21.9 mph 0.01 in Rain , Snow Light Rain
2:27 PM 35.6 °F 27.5 °F 33.8 °F 93% 30.21 in 1.8 mi North 11.5 mph - 0.03 in Snow Light Snow
2:51 PM 35.1 °F 26.9 °F 34.0 °F 96% 30.25 in 1.5 mi North 11.5 mph - 0.04 in Snow Light Snow
3:33 PM 33.8 °F 22.5 °F 30.2 °F 87% 30.25 in 1.2 mi North 19.6 mph 26.5 mph 0.01 in Snow Light Snow
3:51 PM 32.0 °F 21.2 °F 30.9 °F 96% 30.29 in 1.0 mi North 16.1 mph 25.3 mph 0.01 in Snow Light Snow
4:09 PM 32.0 °F 20.8 °F 30.2 °F 93% 30.26 in 0.8 mi North 17.3 mph 26.5 mph 0.00 in Snow Light Snow
4:23 PM 32.0 °F 20.1 °F 28.4 °F 87% 30.27 in 0.8 mi North 19.6 mph 27.6 mph 0.00 in Snow Light Snow
4:27 PM 30.2 °F 19.8 °F 28.4 °F 93% 30.27 in 0.5 mi North 13.8 mph 25.3 mph 0.00 in Fog , Snow Snow
4:38 PM 30.2 °F 20.2 °F 30.2 °F 100% 30.27 in 0.8 mi North 12.7 mph 20.7 mph 0.00 in Snow Light Snow
4:46 PM 30.2 °F 20.2 °F 28.4 °F 93% 30.28 in 1.0 mi North 12.7 mph 23.0 mph 0.00 in Snow Light Snow
4:51 PM 30.9 °F 20.2 °F 28.9 °F 92% 30.31 in 1.0 mi North 15.0 mph - 0.00 in Snow Light Snow
5:00 PM 30.2 °F 18.5 °F 28.4 °F 93% 30.29 in 2.0 mi North 17.3 mph 24.2 mph 0.00 in Snow Light Snow
5:09 PM 30.2 °F 20.2 °F 28.4 °F 93% 30.30 in 2.5 mi North 12.7 mph 20.7 mph 0.00 in Snow Light Snow
5:18 PM 30.2 °F 19.8 °F 28.4 °F 93% 30.31 in 7.0 mi NNW 13.8 mph - 0.00 in Snow Light Snow
5:37 PM 30.2 °F 19.8 °F 26.6 °F 86% 30.32 in 10.0 mi North 13.8 mph - 0.00 in   Overcast
5:51 PM 30.0 °F 19.1 °F 23.0 °F 75% 30.35 in 10.0 mi North 15.0 mph - 0.00 in   Overcast
6:51 PM 30.0 °F 18.3 °F 19.9 °F 66% 30.38 in 10.0 mi NNW 17.3 mph - N/A   Overcast
7:51 PM 30.0 °F 19.5 °F 19.9 °F 66% 30.41 in 10.0 mi NNW 13.8 mph 21.9 mph N/A   Overcast
8:51 PM 30.0 °F 17.5 °F 17.1 °F 59% 30.44 in 10.0 mi NNW 19.6 mph 26.5 mph N/A   Overcast
9:51 PM 28.9 °F 16.5 °F 17.1 °F 61% 30.47 in 10.0 mi NNW 18.4 mph 25.3 mph N/A   Overcast
10:51 PM 27.0 °F 15.6 °F 16.0 °F 63% 30.50 in 10.0 mi NNW 13.8 mph - N/A   Scattered Clouds
11:51 PM 26.1 °F 14.5 °F 16.0 °F 66% 30.52 in 10.0 mi NNW 13.8 mph 21.9 mph N/A   Clear